Satellite: NOAA-11 Catalog number: 19531 Epoch time: 07157.80665270 Element set: 0680 Inclination: 098.8118 deg RA of node: 247.0983 deg Eccentricity: 0.0012423 Arg of perigee: 062.8927 deg Mean anomaly: 297.3533 deg Mean motion: 14.14846590 rev/day Decay rate: 1.34e-06 rev/day^2 Epoch rev: 96468 Checksum: 328
Satellite: NOAA-12 Catalog number: 21263 Epoch time: 07157.84498910 Element set: 0177 Inclination: 098.7514 deg RA of node: 155.1035 deg Eccentricity: 0.0013592 Arg of perigee: 134.4849 deg Mean anomaly: 225.7415 deg Mean motion: 14.25531763 rev/day Decay rate: 4.5e-07 rev/day^2 Epoch rev: 83477 Checksum: 314
Satellite: MET-3/5 Catalog number: 21655 Epoch time: 07157.91648880 Element set: 0292 Inclination: 082.5536 deg RA of node: 010.1998 deg Eccentricity: 0.0012011 Arg of perigee: 233.2543 deg Mean anomaly: 126.7476 deg Mean motion: 13.17011795 rev/day Decay rate: 5.1e-07 rev/day^2 Epoch rev: 76005 Checksum: 291
Satellite: MET-2/21 Catalog number: 22782 Epoch time: 07157.81101436 Element set: 843 Inclination: 082.5487 deg RA of node: 050.1484 deg Eccentricity: 0.0020832 Arg of perigee: 265.8062 deg Mean anomaly: 094.0729 deg Mean motion: 13.83616954 rev/day Decay rate: 5.0e-07 rev/day^2 Epoch rev: 69508 Checksum: 306
Satellite: OKEAN-4 Catalog number: 23317 Epoch time: 07157.92097757 Element set: 0283 Inclination: 082.5391 deg RA of node: 306.1112 deg Eccentricity: 0.0020573 Arg of perigee: 288.4854 deg Mean anomaly: 071.4137 deg Mean motion: 14.82508129 rev/day Decay rate: 2.25e-06 rev/day^2 Epoch rev: 68253 Checksum: 303
Satellite: NOAA-14 Catalog number: 23455 Epoch time: 07157.81715306 Element set: 0660 Inclination: 098.9886 deg RA of node: 223.9466 deg Eccentricity: 0.0010350 Arg of perigee: 127.0149 deg Mean anomaly: 233.1987 deg Mean motion: 14.13720257 rev/day Decay rate: 6.7e-07 rev/day^2 Epoch rev: 64117 Checksum: 308
Satellite: SICH-1 Catalog number: 23657 Epoch time: 07157.88709865 Element set: 0086 Inclination: 082.5286 deg RA of node: 087.0872 deg Eccentricity: 0.0022194 Arg of perigee: 278.9211 deg Mean anomaly: 080.9482 deg Mean motion: 14.81488949 rev/day Decay rate: 9.8e-07 rev/day^2 Epoch rev: 63450 Checksum: 353
Satellite: NOAA-15 Catalog number: 25338 Epoch time: 07157.84753755 Element set: 0022 Inclination: 098.5291 deg RA of node: 154.8220 deg Eccentricity: 0.0011652 Arg of perigee: 062.5702 deg Mean anomaly: 297.6655 deg Mean motion: 14.24645137 rev/day Decay rate: -8.0e-08 rev/day^2 Epoch rev: 47121 Checksum: 301
Satellite: RESURS Catalog number: 25394 Epoch time: 07159.00464220 Element set: 658 Inclination: 098.4411 deg RA of node: 213.8980 deg Eccentricity: 0.0000686 Arg of perigee: 182.9892 deg Mean anomaly: 177.1283 deg Mean motion: 14.24137780 rev/day Decay rate: 8.0e-08 rev/day^2 Epoch rev: 46304 Checksum: 301
Satellite: FENGYUN1 Catalog number: 25730 Epoch time: 07158.89539778 Element set: 136 Inclination: 098.6861 deg RA of node: 143.1146 deg Eccentricity: 0.0021411 Arg of perigee: 150.8776 deg Mean anomaly: 209.3603 deg Mean motion: 14.07514606 rev/day Decay rate: 5.30e-06 rev/day^2 Epoch rev: 41616 Checksum: 298
Satellite: OKEAN-0 Catalog number: 25860 Epoch time: 07157.57028855 Element set: 70 Inclination: 097.7296 deg RA of node: 160.3157 deg Eccentricity: 0.0001968 Arg of perigee: 062.5367 deg Mean anomaly: 297.6037 deg Mean motion: 14.73456071 rev/day Decay rate: 4.4e-07 rev/day^2 Epoch rev: 42393 Checksum: 316
Satellite: NOAA-16 Catalog number: 26536 Epoch time: 07157.84725647 Element set: 0436 Inclination: 099.1150 deg RA of node: 134.6091 deg Eccentricity: 0.0010267 Arg of perigee: 198.0728 deg Mean anomaly: 162.0097 deg Mean motion: 14.12432053 rev/day Decay rate: 3.66e-06 rev/day^2 Epoch rev: 34564 Checksum: 302
Satellite: NOAA-17 Catalog number: 27453 Epoch time: 07157.83766630 Element set: 0446 Inclination: 098.5793 deg RA of node: 227.3871 deg Eccentricity: 0.0012849 Arg of perigee: 122.9114 deg Mean anomaly: 237.3287 deg Mean motion: 14.23883843 rev/day Decay rate: -5.0e-08 rev/day^2 Epoch rev: 25724 Checksum: 331
Satellite: NOAA-18 Catalog number: 28654 Epoch time: 07157.82983356 Element set: 0980 Inclination: 098.8280 deg RA of node: 099.2870 deg Eccentricity: 0.0013560 Arg of perigee: 300.4978 deg Mean anomaly: 059.4878 deg Mean motion: 14.11069097 rev/day Decay rate: 2.26e-06 rev/day^2 Epoch rev: 10539 Checksum: 348
/EX SB KEPS @ AMSAT $ORB07158.M Orbital Elements 07158.MISC
HR AMSAT ORBITAL ELEMENTS FOR MANNED AND MISCELLANEOUS SATELLITES FROM WA5QGD FORT WORTH,TX June 7, 2007 Send SUBSCRIBE KEPS/UNSUBSCRIBE KEPS to majordomo@amsat.org only BID: ORB07158.M TO ALL RADIO AMATEURS BT
Satellite: HUBBLE Catalog number: 20580 Epoch time: 07158.62808700 Element set: 891 Inclination: 028.4689 deg RA of node: 252.4549 deg Eccentricity: 0.0003364 Arg of perigee: 357.7226 deg Mean anomaly: 002.3346 deg Mean motion: 15.00248379 rev/day Decay rate: 3.97e-06 rev/day^2 Epoch rev: 73852 Checksum: 311
Satellite: UARS Catalog number: 21701 Epoch time: 07157.94973059 Element set: 0101 Inclination: 056.9742 deg RA of node: 358.3665 deg Eccentricity: 0.0094641 Arg of perigee: 168.8090 deg Mean anomaly: 191.5103 deg Mean motion: 15.48129965 rev/day Decay rate: 6.086e-05 rev/day^2 Epoch rev: 86416 Checksum: 327
Satellite: PO-34 Catalog number: 25520 Epoch time: 07157.45187800 Element set: 0756 Inclination: 028.4598 deg RA of node: 180.5976 deg Eccentricity: 0.0005770 Arg of perigee: 139.9031 deg Mean anomaly: 220.1992 deg Mean motion: 15.17004452 rev/day Decay rate: 5.12e-06 rev/day^2 Epoch rev: 47589 Checksum: 314
Satellite: ISS Catalog number: 25544 Epoch time: 07159.00953410 Element set: 348 Inclination: 051.6320 deg RA of node: 151.3322 deg Eccentricity: 0.0007764 Arg of perigee: 292.5063 deg Mean anomaly: 166.1574 deg Mean motion: 15.78206851 rev/day Decay rate: 6.993e-05 rev/day^2 Epoch rev: 48932 Checksum: 298
Satellite: OO-38 Catalog number: 26063 Epoch time: 07157.57738099 Element set: 928 Inclination: 100.2269 deg RA of node: 158.2402 deg Eccentricity: 0.0036622 Arg of perigee: 189.0766 deg Mean anomaly: 170.9745 deg Mean motion: 14.35807105 rev/day Decay rate: -1.7e-07 rev/day^2 Epoch rev: 38552 Checksum: 323
Satellite: UWE-1 Catalog number: 28892 Epoch time: 07157.72247779 Element set: 0766 Inclination: 098.1313 deg RA of node: 054.5741 deg Eccentricity: 0.0017917 Arg of perigee: 141.8632 deg Mean anomaly: 218.3841 deg Mean motion: 14.59509500 rev/day Decay rate: 9.3e-07 rev/day^2 Epoch rev: 08568 Checksum: 330
Satellite: CO-58 Catalog number: 28895 Epoch time: 07157.70148748 Element set: 0745 Inclination: 098.1355 deg RA of node: 054.7621 deg Eccentricity: 0.0018280 Arg of perigee: 141.7163 deg Mean anomaly: 218.5374 deg Mean motion: 14.59556797 rev/day Decay rate: 1.42e-06 rev/day^2 Epoch rev: 08556 Checksum: 347
Satellite: NCUBE2 Catalog number: 28897 Epoch time: 07158.66857282 Element set: 271 Inclination: 098.1329 deg RA of node: 055.6672 deg Eccentricity: 0.0017545 Arg of perigee: 140.8961 deg Mean anomaly: 219.3518 deg Mean motion: 14.59719410 rev/day Decay rate: 1.31e-06 rev/day^2 Epoch rev: 7798 Checksum: 340
Satellite: NMARS Catalog number: 29662 Epoch time: 07126.39603970 Element set: 263 Inclination: 051.6121 deg RA of node: 302.3682 deg Eccentricity: 0.0004459 Arg of perigee: 252.1654 deg Mean anomaly: 110.7411 deg Mean motion: 16.47981436 rev/day Decay rate: 7.031946e-02 rev/day^2 Epoch rev: 2165 Checksum: 289
Satellite: FCAL Catalog number: 29667 Epoch time: 07157.44153876 Element set: 0184 Inclination: 051.6319 deg RA of node: 150.6346 deg Eccentricity: 0.0013550 Arg of perigee: 309.0462 deg Mean anomaly: 050.9342 deg Mean motion: 15.87820248 rev/day Decay rate: 1.4762e-04 rev/day^2 Epoch rev: 02629 Checksum: 303
Satellite: FALCON Catalog number: 30776 Epoch time: 07157.68982770 Element set: 0080 Inclination: 035.4347 deg RA of node: 276.2994 deg Eccentricity: 0.0001794 Arg of perigee: 348.9874 deg Mean anomaly: 011.0803 deg Mean motion: 15.02716037 rev/day Decay rate: 2.70e-06 rev/day^2 Epoch rev: 01347 Checksum: 305
Satellite: MAST Catalog number: 31126 Epoch time: 07157.72449841 Element set: 0053 Inclination: 098.0827 deg RA of node: 231.2075 deg Eccentricity: 0.0095752 Arg of perigee: 058.4629 deg Mean anomaly: 302.5849 deg Mean motion: 14.53344554 rev/day Decay rate: 3.95e-06 rev/day^2 Epoch rev: 00733 Checksum: 304
Satellite: CAPE1 Catalog number: 31130 Epoch time: 07157.91401091 Element set: 0042 Inclination: 098.0848 deg RA of node: 231.2731 deg Eccentricity: 0.0103825 Arg of perigee: 058.1507 deg Mean anomaly: 302.9730 deg Mean motion: 14.51856857 rev/day Decay rate: 9.6e-07 rev/day^2 Epoch rev: 00712 Checksum: 270
/EX
participants (1)
-
Ray Hoad